Location: Unspecified
(49.9820°N, 20.4363°E)
Time: 22:23:06
(UTC+02:00)

ISS - Pass Details

Date: 13 July 2018
Orbit: 402 x 408 km, 51.6° (Epoch: 20 July)

Event Time Altitude Azimuth Distance (km) Brightness Sun altitude
Exits shadow 01:58:08 44° 215° (SW) 573 -3.6 -16.3°
Maximum altitude 01:58:55 62° 157° (SSE) 463 -3.8 -16.3°
Drops below altitude 10° 02:02:11 10° 76° (ENE) 1,474 -0.6 -16.1°
Sets 02:04:17 0° 73° (ENE) 2,337 0.6 -16.0°
